Taos, NM

7:54 PM MDT on April 21, 2018 (GMT -0600)
Taos Municipal

Weather History for KSKX - February, 2014

Change the Weather History Date:

Wednesday, February 26, 2014

  Actual Average Record
Temperature  
Mean Temperature 39 °F -  
Max Temperature 55 °F 41 °F 57 °F (2006)
Min Temperature 23 °F 17 °F 6 °F (2018)
Degree Days  
Heating Degree Days 26    
Moisture  
Dew Point 13 °F    
Average Humidity 39    
Maximum Humidity 74    
Minimum Humidity 19    
Precipitation  
Precipitation 0.00 in - - ()
Sea Level Pressure  
Sea Level Pressure 30.04 in    
Wind  
Wind Speed 4 mph (SW)    
Max Wind Speed 17 mph    
Max Gust Speed 18 mph    
Visibility 10 miles    
Events      
Averages and records for this station are not official NWS values.
T = Trace of Precipitation, MM = Missing Value Source: NWS Daily Summary

Daily Weather History Graph

Daily Weather History Graph

Search for Another Location

Airport or City:

Astronomy

Feb. 26, 2014 Rise Set
Actual Time 6:37 AM MST 5:54 PM MST
Civil Twilight 6:11 AM MST 6:20 PM MST
Nautical Twilight 5:41 AM MST 6:50 PM MST
Astronomical Twilight 5:11 AM MST 7:20 PM MST
Moon 4:21 AM MST (2/26) 3:15 PM MST (2/26)
Length of Visible Light 12h 09m
Length of Day
11h 17m
Waning Crescent, 9% of the Moon is Illuminated
Feb 26
Waning Crescent
Mar 1
New
Mar 8
First Quarter
Mar 16
Full
Mar 23
Last Quarter

Hourly Weather History & Observations

Time (MST) Temp. Windchill Dew Point Humidity Pressure Visibility Wind Dir Wind Speed Gust Speed Precip Events Conditions
12:15 AM 32.0 °F - 8.6 °F 38% 30.05 in 10.0 mi Calm Calm - N/A   Clear
12:35 AM 30.2 °F - 8.6 °F 40% 30.04 in 10.0 mi Calm Calm - N/A   Clear
12:55 AM 30.2 °F - 8.6 °F 40% 30.04 in 10.0 mi Calm Calm - N/A   Clear
1:15 AM 28.4 °F - 8.6 °F 43% 30.05 in 10.0 mi Calm Calm - N/A   Clear
1:35 AM 28.4 °F - 8.6 °F 43% 30.05 in 10.0 mi Calm Calm - N/A   Clear
1:55 AM 37.4 °F 33.8 °F 12.2 °F 36% 30.04 in 10.0 mi SW 4.6 mph - N/A   Clear
2:15 AM 35.6 °F 28.6 °F 8.6 °F 33% 30.04 in 10.0 mi WSW 9.2 mph - N/A   Clear
2:35 AM 32.0 °F 25.6 °F 6.8 °F 35% 30.04 in 10.0 mi WSW 6.9 mph - N/A   Clear
2:55 AM 30.2 °F 23.4 °F 8.6 °F 40% 30.04 in 10.0 mi WSW 6.9 mph - N/A   Clear
3:15 AM 30.2 °F 22.6 °F 10.4 °F 44% 30.04 in 10.0 mi WSW 8.1 mph - N/A   Clear
3:35 AM 28.4 °F - 8.6 °F 43% 30.05 in 10.0 mi Calm Calm - N/A   Clear
3:55 AM 30.2 °F 22.6 °F 10.4 °F 44% 30.05 in 10.0 mi West 8.1 mph - N/A   Clear
4:15 AM 30.2 °F 26.7 °F 12.2 °F 47% 30.06 in 10.0 mi NW 3.5 mph - N/A   Clear
4:35 AM 28.4 °F 24.6 °F 14.0 °F 55% 30.06 in 10.0 mi NNW 3.5 mph - N/A   Clear
4:55 AM 28.4 °F - 15.8 °F 59% 30.08 in 10.0 mi Calm Calm - N/A   Clear
5:15 AM 26.6 °F 21.2 °F 15.8 °F 64% 30.08 in 10.0 mi NW 4.6 mph - N/A   Clear
5:35 AM 26.6 °F 22.6 °F 12.2 °F 55% 30.09 in 10.0 mi North 3.5 mph - N/A   Clear
5:55 AM 23.0 °F - 12.2 °F 63% 30.09 in 10.0 mi Calm Calm - N/A   Clear
6:15 AM 23.0 °F - 14.0 °F 68% 30.09 in 10.0 mi Calm Calm - N/A   Clear
6:35 AM 23.0 °F - 14.0 °F 68% 30.10 in 10.0 mi Calm Calm - N/A   Clear
6:55 AM 23.0 °F 17.0 °F 14.0 °F 68% 30.10 in 10.0 mi WSW 4.6 mph - N/A   Clear
7:15 AM 23.0 °F - 15.8 °F 74% 30.11 in 10.0 mi Calm Calm - N/A   Clear
7:35 AM 24.8 °F 19.1 °F 17.6 °F 74% 30.12 in 10.0 mi WSW 4.6 mph - N/A   Clear
7:55 AM 26.6 °F 19.1 °F 17.6 °F 69% 30.12 in 10.0 mi WSW 6.9 mph - N/A   Clear
8:15 AM 26.6 °F 20.0 °F 17.6 °F 69% 30.12 in 10.0 mi WSW 5.8 mph - N/A   Clear
8:35 AM 28.4 °F 23.3 °F 17.6 °F 64% 30.13 in 10.0 mi SW 4.6 mph - N/A   Clear
8:55 AM 28.4 °F 24.6 °F 17.6 °F 64% 30.13 in 10.0 mi SSW 3.5 mph - N/A   Clear
9:15 AM 30.2 °F - 17.6 °F 60% 30.12 in 10.0 mi Calm Calm - N/A   Clear
9:35 AM 32.0 °F - 17.6 °F 55% 30.12 in 10.0 mi Calm Calm - N/A   Clear
9:55 AM 33.8 °F - 17.6 °F 52% 30.12 in 10.0 mi Calm Calm - N/A   Clear
10:15 AM 35.6 °F 30.7 °F 17.6 °F 48% 30.12 in 10.0 mi SW 5.8 mph - N/A   Clear
10:35 AM 37.4 °F - 17.6 °F 45% 30.11 in 10.0 mi Calm Calm - N/A   Clear
10:55 AM 39.2 °F 35.0 °F 17.6 °F 42% 30.10 in 10.0 mi South 5.8 mph - N/A   Clear
11:15 AM 42.8 °F 38.0 °F 17.6 °F 36% 30.09 in 10.0 mi SW 8.1 mph - N/A   Clear
11:35 AM 42.8 °F 39.3 °F 17.6 °F 36% 30.08 in 10.0 mi South 5.8 mph - N/A   Clear
11:55 AM 44.6 °F 40.7 °F 17.6 °F 34% 30.07 in 10.0 mi SSW 6.9 mph - N/A   Clear
12:15 PM 46.4 °F 43.5 °F 17.6 °F 32% 30.06 in 10.0 mi SSW 5.8 mph - N/A   Clear
12:35 PM 48.2 °F - 17.6 °F 30% 30.05 in 10.0 mi WSW 5.8 mph - N/A   Clear
12:55 PM 50.0 °F - 17.6 °F 28% 30.03 in 10.0 mi West 3.5 mph - N/A   Clear
1:15 PM 51.8 °F - 15.8 °F 24% 30.02 in 10.0 mi WSW 10.4 mph - N/A   Clear
1:35 PM 51.8 °F - 15.8 °F 24% 30.01 in 10.0 mi SW 4.6 mph - N/A   Clear
1:55 PM 53.6 °F - 15.8 °F 22% 29.99 in 10.0 mi WSW 11.5 mph - N/A   Clear
2:15 PM 53.6 °F - 15.8 °F 22% 29.98 in 10.0 mi SSE 5.8 mph - N/A   Clear
2:35 PM 55.4 °F - 15.8 °F 21% 29.98 in 10.0 mi WSW 11.5 mph - N/A   Clear
2:55 PM 53.6 °F - 14.0 °F 21% 29.98 in 10.0 mi SW 10.4 mph 16.1 mph N/A   Clear
3:15 PM 53.6 °F - 14.0 °F 21% 29.97 in 10.0 mi SSW 10.4 mph - N/A   Clear
3:35 PM 53.6 °F - 12.2 °F 19% 29.97 in 10.0 mi SSW 8.1 mph - N/A   Mostly Cloudy
3:55 PM 55.4 °F - 14.0 °F 20% 29.96 in 10.0 mi WSW 13.8 mph 18.4 mph N/A   Scattered Clouds
4:15 PM 53.6 °F - 12.2 °F 19% 29.96 in 10.0 mi SW 13.8 mph 17.3 mph N/A   Scattered Clouds
4:35 PM 53.6 °F - 14.0 °F 21% 29.96 in 10.0 mi WSW 13.8 mph 18.4 mph N/A   Mostly Cloudy
4:55 PM 53.6 °F - 12.2 °F 19% 29.96 in 10.0 mi SW 13.8 mph - N/A   Overcast
5:15 PM 53.6 °F - 12.2 °F 19% 29.96 in 10.0 mi WSW 12.7 mph 16.1 mph N/A   Overcast
5:35 PM 53.6 °F - 12.2 °F 19% 29.96 in 10.0 mi WSW 17.3 mph - N/A   Overcast
5:55 PM 51.8 °F - 12.2 °F 21% 29.97 in 10.0 mi SW 13.8 mph - N/A   Overcast
6:15 PM 48.2 °F - 12.2 °F 24% 29.98 in 10.0 mi WSW 10.4 mph - N/A   Overcast
6:35 PM 48.2 °F - 12.2 °F 24% 29.99 in 10.0 mi SW 12.7 mph - N/A   Overcast
6:55 PM 46.4 °F 41.1 °F 12.2 °F 25% 30.00 in 10.0 mi SW 11.5 mph - N/A   Mostly Cloudy
7:15 PM 44.6 °F 39.7 °F 10.4 °F 25% 30.00 in 10.0 mi WSW 9.2 mph - N/A   Mostly Cloudy
7:35 PM 42.8 °F 37.5 °F 10.4 °F 27% 30.01 in 10.0 mi SW 9.2 mph - N/A   Scattered Clouds
7:55 PM 41.0 °F 35.2 °F 10.4 °F 29% 30.01 in 10.0 mi SW 9.2 mph - N/A   Mostly Cloudy
8:15 PM 37.4 °F 31.4 °F 8.6 °F 30% 30.02 in 10.0 mi SW 8.1 mph - N/A   Scattered Clouds
8:35 PM 37.4 °F 33.8 °F 8.6 °F 30% 30.02 in 10.0 mi SW 4.6 mph - N/A   Clear
8:55 PM 37.4 °F - 8.6 °F 30% 30.03 in 10.0 mi Calm Calm - N/A   Partly Cloudy
9:15 PM 37.4 °F - 8.6 °F 30% 30.03 in 10.0 mi Calm Calm - N/A   Mostly Cloudy
9:35 PM 35.6 °F 31.7 °F 8.6 °F 33% 30.03 in 10.0 mi SSE 4.6 mph - N/A   Scattered Clouds
9:55 PM 37.4 °F 33.8 °F 10.4 °F 33% 30.03 in 10.0 mi SSW 4.6 mph - N/A   Scattered Clouds
10:15 PM 37.4 °F 33.8 °F 8.6 °F 30% 30.03 in 10.0 mi South 4.6 mph - N/A   Clear
10:35 PM 37.4 °F - 8.6 °F 30% 30.04 in 10.0 mi Calm Calm - N/A   Clear
10:55 PM 35.6 °F - 8.6 °F 33% 30.03 in 10.0 mi Calm Calm - N/A   Clear
11:15 PM 30.2 °F - 6.8 °F 37% 30.03 in 10.0 mi Calm Calm - N/A   Clear
11:35 PM 35.6 °F - 8.6 °F 33% 30.03 in 10.0 mi Calm Calm - N/A   Clear
11:55 PM 30.2 °F 25.4 °F 6.8 °F 37% 30.03 in 10.0 mi SSW 4.6 mph - N/A   Clear